1511902801.04,64329,9.13,72702.0,-7.93,-22.17,-21.83,0,*59
1511902802.29,64330,9.13,72700.5,-7.93,-22.21,-21.83,0,*54
1511902803.58,64331,9.19,72710.5,-7.95,-22.21,-21.83,0,*53
1511902804.81,64332,9.19,72704.3,-7.93,-22.17,-21.73,0,*5C
1511902806.1,64333,9.19,72704.8,-7.95,-22.17,-21.83,0,*54
1511902807.35,64334,9.19,72708.5,-7.95,-22.17,-21.73,0,*5C
1511902808.64,64335,9.19,72704.3,-7.95,-22.31,-21.87,0,*52
1511902809.93,64336,9.19,72704.3,-7.95,-22.21,-21.87,0,*50
1511902811.22,64337,9.19,72704.8,-7.95,-22.17,-21.83,0,*50
1511902812.44,64338,9.13,72706.0,-7.95,-22.07,-21.73,0,*51
1511902813.64,64339,9.19,72708.0,-7.97,-22.11,-21.73,0,*55
1511902814.86,64340,9.19,72706.3,-7.95,-22.07,-21.73,0,*5E
1511902816.11,64341,9.19,72704.8,-7.95,-22.07,-21.67,0,*5A
1511902817.36,64342,9.19,72706.0,-7.95,-22.07,-21.83,0,*53
1511902818.6,64343,9.19,72704.8,-7.97,-22.21,-21.77,0,*5F
1511902819.84,64344,9.13,72702.8,-7.97,-22.11,-21.87,0,*54
1511902821.12,64345,9.19,72706.0,-7.95,-22.17,-21.83,0,*55
1511902822.41,64346,9.19,72710.3,-7.95,-22.21,-21.83,0,*53
1511902823.62,64347,9.19,72704.0,-7.97,-22.11,-21.77,0,*58
1511902824.88,64348,9.19,72708.3,-7.97,-22.21,-21.87,0,*5B
1511902826.1,64349,9.19,72706.0,-7.95,-22.07,-21.73,0,*57
1511902827.32,64350,9.19,72706.5,-7.95,-22.07,-21.73,0,*5F
1511902828.55,64351,9.19,72706.5,-7.93,-22.07,-21.67,0,*5D
1511902829.8,64352,9.19,72706.0,-7.95,-22.07,-21.83,0,*52
1511902831.05,64353,9.13,72704.0,-7.95,-22.07,-21.67,0,*59
1511902832.29,64354,9.19,72704.3,-7.97,-22.21,-21.77,0,*59
1511902833.53,64355,9.19,72708.3,-7.97,-22.11,-21.87,0,*54
1511902834.75,64356,9.19,72708.8,-7.95,-22.07,-21.73,0,*59
1511902836.0,64357,9.19,72708.0,-7.95,-22.17,-21.73,0,*59
1511902837.2,64358,9.19,72706.0,-7.97,-22.03,-21.73,0,*51
1511902838.44,64359,9.19,72706.5,-7.97,-21.97,-21.77,0,*5A
1511902839.67,64360,9.19,72704.8,-7.97,-22.07,-21.67,0,*5B
1511902840.92,64361,9.19,72706.3,-7.95,-22.03,-21.57,0,*5F
1511902842.15,64362,9.13,72702.5,-7.97,-22.21,-21.77,0,*5C
1511902843.35,64363,9.19,72706.5,-7.93,-22.07,-21.73,0,*59
1511902844.55,64364,9.13,72704.3,-7.97,-22.11,-21.73,0,*5D
1511902845.79,64365,9.19,72702.8,-7.95,-22.07,-21.57,0,*5F
1511902846.99,64366,9.19,72704.5,-7.97,-22.07,-21.73,0,*58
1511902848.25,64367,9.13,72702.5,-7.95,-22.07,-21.67,0,*5E
1511902849.45,64368,9.19,72706.0,-7.97,-22.11,-21.73,0,*51
1511902850.65,64369,9.19,72704.0,-7.97,-22.11,-21.73,0,*50
1511902851.92,64370,9.19,72706.3,-7.99,-22.03,-21.67,0,*50
1511902853.18,64371,9.13,72700.8,-7.99,-22.03,-21.67,0,*51
1511902854.38,64372,9.19,72706.3,-7.97,-22.11,-21.73,0,*5A
1511902855.58,64373,9.19,72706.3,-7.97,-22.07,-21.63,0,*5D
1511902856.81,64374,9.13,72704.0,-7.97,-21.97,-21.63,0,*50
1511902858.02,64375,9.19,72706.0,-7.97,-21.93,-21.47,0,*53
1511902859.26,64376,9.19,72702.5,-7.97,-21.93,-21.57,0,*51
1511902860.46,64377,9.19,72704.5,-7.97,-22.07,-21.63,0,*59
1511902861.66,64378,9.19,72704.3,-7.97,-22.07,-21.47,0,*50
1511902862.91,64379,9.19,72708.5,-7.97,-21.97,-21.57,0,*5A
1511902864.16,64380,9.13,72702.5,-7.97,-21.97,-21.57,0,*5C
1511902865.36,64381,9.19,72704.8,-7.97,-22.07,-21.73,0,*51
1511902866.56,64382,9.13,72702.0,-7.97,-22.07,-21.73,0,*52
1511902867.83,64383,9.19,72704.8,-7.99,-22.11,-21.67,0,*5F
1511902869.09,64384,9.13,72702.8,-7.99,-22.03,-21.67,0,*5B
1511902870.35,64385,9.19,72706.0,-7.95,-21.87,-21.43,0,*5F
1511902871.56,64386,9.19,72704.3,-7.97,-21.93,-21.47,0,*5F
1511902872.77,64387,9.19,72704.0,-7.97,-21.93,-21.47,0,*5E
1511902873.98,64388,9.13,72702.8,-7.97,-21.93,-21.47,0,*51
1511902875.22,64389,9.19,72704.8,-7.97,-21.93,-21.57,0,*51
1511902876.45,64390,9.19,72706.5,-7.97,-21.87,-21.47,0,*5D
1511902877.71,64391,9.19,72704.5,-7.97,-21.87,-21.57,0,*5D
1511902878.95,64392,9.19,72704.0,-7.97,-21.97,-21.47,0,*5E
1511902880.2,64393,9.13,72702.3,-7.97,-21.97,-21.57,0,*5E
1511902881.41,64394,9.13,72702.0,-7.97,-21.93,-21.63,0,*5A
1511902882.67,64395,9.13,72702.3,-7.97,-21.87,-21.57,0,*59
1511902883.91,64396,9.13,72702.3,-7.97,-21.87,-21.47,0,*5B
1511902885.16,64397,9.19,72704.3,-7.97,-21.87,-21.57,0,*5B
1511902886.4,64398,9.19,72706.3,-7.97,-21.87,-21.63,0,*53
1511902887.63,64399,9.13,72702.3,-7.97,-21.93,-21.57,0,*50
1511902888.87,64400,9.13,72702.0,-7.97,-21.87,-21.47,0,*53
1511902890.11,64401,9.19,72704.5,-7.97,-21.87,-21.43,0,*56
1511902891.34,64402,9.13,72702.5,-7.97,-21.87,-21.43,0,*55
1511902892.58,64403,9.19,72706.3,-7.97,-21.87,-21.47,0,*50
1511902893.79,64404,9.13,72702.5,-7.97,-21.93,-21.47,0,*52
1511902895.05,64405,9.19,72704.5,-7.99,-21.97,-21.63,0,*5F
1511902896.31,64406,9.19,72704.5,-7.99,-21.97,-21.63,0,*5C
1511902897.52,64407,9.19,72706.0,-7.97,-21.93,-21.47,0,*51
1511902898.76,64408,9.19,72706.5,-7.97,-21.87,-21.47,0,*5B
1511902900.0,64409,9.13,72702.8,-7.97,-21.87,-21.47,0,*5A
1511902901.26,64410,9.13,72706.0,-7.95,-21.83,-21.43,0,*50
1511902902.5,64411,9.19,72704.5,-7.97,-21.87,-21.47,0,*53
1511902903.7,64412,9.13,72704.0,-7.97,-21.93,-21.63,0,*53
1511902904.94,64413,9.13,72700.8,-7.97,-21.87,-21.47,0,*51
1511902906.2,64414,9.19,72706.3,-7.97,-21.87,-21.33,0,*55
1511902907.41,64415,9.13,72702.8,-7.97,-21.93,-21.43,0,*56
1511902908.7,64416,9.19,72704.8,-7.99,-21.97,-21.53,0,*5E
1511902909.97,64417,9.19,72706.0,-7.99,-21.93,-21.53,0,*5B
1511902911.2,64418,9.19,72702.8,-7.97,-21.87,-21.43,0,*5E
1511902912.47,64419,9.19,72704.5,-7.99,-21.93,-21.53,0,*55
1511902913.73,64420,9.19,72704.3,-7.97,-21.87,-21.33,0,*52
1511902914.94,64421,9.19,72704.5,-7.97,-21.77,-21.43,0,*5B
1511902916.14,64422,9.13,72702.5,-7.97,-21.77,-21.43,0,*58
1511902917.35,64423,9.13,72702.0,-7.97,-21.77,-21.43,0,*59
1511902918.59,64424,9.19,72704.0,-7.97,-21.73,-21.33,0,*5D
1511902919.82,64425,9.19,72706.3,-7.97,-21.77,-21.33,0,*58
1511902921.06,64426,9.13,72702.3,-7.99,-21.77,-21.39,0,*5F
1511902922.33,64427,9.19,72704.3,-7.99,-21.83,-21.39,0,*55
1511902923.57,64428,9.19,72706.5,-7.99,-21.77,-21.47,0,*58
1511902924.81,64429,9.13,72704.3,-7.97,-21.73,-21.27,0,*55
1511902926.05,64430,9.13,72706.3,-7.97,-21.63,-21.27,0,*5C
1511902927.31,64431,9.19,72704.8,-7.97,-21.57,-21.27,0,*5A
1511902928.55,64432,9.13,72702.5,-7.97,-21.73,-21.27,0,*5F
1511902929.79,64433,9.13,72704.3,-7.97,-21.73,-21.27,0,*5E
1511902931.07,64434,9.13,72700.8,-7.95,-21.57,-21.27,0,*5D
1511902932.31,64435,9.13,72704.3,-7.97,-21.57,-21.17,0,*5D
1511902933.6,64436,9.13,72702.5,-7.95,-21.67,-21.27,0,*5C
1511902934.84,64437,9.13,72704.3,-7.99,-21.77,-21.39,0,*5F
1511902936.08,64438,9.13,72700.0,-7.97,-21.77,-21.33,0,*54
1511902937.28,64439,9.19,72704.8,-7.97,-21.77,-21.43,0,*52
1511902938.52,64440,9.13,72702.8,-7.97,-21.63,-21.27,0,*5B
1511902939.73,64441,9.13,72702.3,-7.97,-21.73,-21.43,0,*59
1511902940.97,64442,9.13,72700.8,-7.99,-21.77,-21.47,0,*54
1511902942.21,64443,9.19,72704.3,-7.97,-21.73,-21.27,0,*59
1511902943.47,64444,9.13,72700.3,-7.99,-21.77,-21.33,0,*51
1511902944.76,64445,9.13,72702.5,-7.99,-21.67,-21.33,0,*51
1511902946.0,64446,9.19,72704.8,-7.99,-21.77,-21.39,0,*59
1511902947.24,64447,9.13,72706.0,-7.97,-21.63,-21.27,0,*5C
1511902948.45,64448,9.13,72704.3,-7.97,-21.63,-21.17,0,*50
1511902949.71,64449,9.19,72706.8,-7.95,-21.53,-21.13,0,*54
1511902950.95,64450,9.19,72704.8,-7.97,-21.63,-21.33,0,*5F
1511902952.15,64451,9.13,72700.8,-7.97,-21.63,-21.13,0,*5C
1511902953.36,64452,9.19,72704.8,-7.97,-21.63,-21.13,0,*5F
1511902954.57,64453,9.19,72704.8,-7.97,-21.47,-21.17,0,*5C
1511902955.78,64454,9.19,72704.8,-7.97,-21.43,-21.17,0,*5F
1511902957.02,64455,9.19,72704.3,-7.97,-21.57,-21.17,0,*5B
1511902958.25,64456,9.19,72704.8,-7.95,-21.43,-21.13,0,*5B
1511902959.45,64457,9.13,72702.8,-7.97,-21.47,-21.13,0,*5C
1511902960.69,64458,9.13,72702.8,-7.97,-21.63,-21.27,0,*52
1511902961.9,64459,9.19,72702.5,-7.97,-21.47,-21.17,0,*56
1511902963.17,64460,9.13,72702.5,-7.97,-21.57,-21.27,0,*5E
1511902964.38,64461,9.13,72700.5,-7.97,-21.43,-21.17,0,*59
1511902965.6,64462,9.13,72702.8,-7.95,-21.39,-21.13,0,*51
1511902966.82,64463,9.19,72706.0,-7.97,-21.47,-21.17,0,*5F
1511902968.05,64464,9.13,72700.3,-7.95,-21.43,-21.13,0,*5A
1511902969.26,64465,9.13,72702.0,-7.97,-21.43,-21.17,0,*5D
1511902970.46,64466,9.13,72700.3,-7.93,-21.39,-21.13,0,*53
1511902971.67,64467,9.19,72706.8,-7.97,-21.43,-21.17,0,*5F
1511902972.93,64468,9.19,72702.8,-7.95,-21.53,-21.13,0,*57
1511902974.17,64469,9.13,72702.5,-7.97,-21.47,-21.27,0,*56
1511902975.4,64470,9.13,72700.5,-7.95,-21.43,-21.13,0,*5F
1511902976.62,64471,9.13,72700.5,-7.95,-21.43,-21.13,0,*5E
1511902977.84,64472,9.13,72702.5,-7.97,-21.47,-21.17,0,*5F
1511902979.05,64473,9.13,72702.0,-7.97,-21.43,-21.17,0,*5A
1511902980.26,64474,9.19,72704.8,-7.97,-21.43,-21.17,0,*5D
1511902981.47,64475,9.13,72700.8,-7.97,-21.47,-21.17,0,*58
1511902982.7,64476,9.13,72702.0,-7.95,-21.39,-21.13,0,*54
1511902983.94,64477,9.19,72706.8,-7.97,-21.33,-21.17,0,*59
1511902985.17,64478,9.13,72702.3,-7.97,-21.33,-21.13,0,*52
1511902986.4,64479,9.19,72706.3,-7.97,-21.43,-21.27,0,*53
1511902987.64,64480,9.13,72702.8,-7.97,-21.33,-21.17,0,*51
1511902988.87,64481,9.13,72704.3,-7.97,-21.27,-21.13,0,*51
1511902990.13,64482,9.13,72702.3,-7.95,-21.23,-21.09,0,*5F
1511902991.38,64483,9.13,72702.8,-7.95,-21.27,-21.09,0,*5A
1511902992.62,64484,9.13,72702.3,-7.97,-21.47,-21.27,0,*55
1511902993.83,64485,9.19,72702.5,-7.97,-21.43,-21.17,0,*53
1511902995.06,64486,9.19,72706.5,-7.95,-21.43,-21.13,0,*56
1511902996.29,64487,9.13,72702.3,-7.95,-21.43,-21.13,0,*57
1511902997.49,64488,9.13,72702.8,-7.93,-21.39,-21.13,0,*53
1511902998.73,64489,9.13,72698.8,-7.97,-21.27,-21.13,0,*59
1511902999.96,64490,9.13,72704.3,-7.97,-21.23,-21.13,0,*55
1511903001.22,64491,9.13,72700.0,-7.95,-21.27,-21.09,0,*59
1511903002.44,64492,9.13,72702.3,-7.95,-21.13,-21.09,0,*5D
1511903003.7,64493,9.13,72700.0,-7.95,-21.27,-21.09,0,*5B
1511903004.96,64494,9.13,72702.0,-7.95,-21.23,-21.13,0,*53
1511903006.19,64495,9.19,72704.8,-7.97,-21.33,-21.17,0,*55
1511903007.45,64496,9.13,72702.8,-7.95,-21.23,-21.09,0,*5A
1511903008.71,64497,9.19,72702.3,-7.97,-21.27,-21.03,0,*57
1511903010.0,64498,9.13,72702.0,-7.95,-21.23,-20.99,0,*5C
1511903011.21,64499,9.19,72706.5,-7.97,-21.17,-21.13,0,*5B
1511903012.44,64500,9.19,72704.5,-7.97,-21.33,-21.13,0,*5C
1511903013.65,64501,9.19,72702.8,-7.97,-21.17,-21.13,0,*5B
1511903014.9,64502,9.13,72702.8,-7.95,-21.23,-21.09,0,*56
1511903016.13,64503,9.13,72702.5,-7.95,-21.13,-21.09,0,*54
1511903017.34,64504,9.13,72702.3,-7.97,-21.13,-21.13,0,*5A
1511903018.6,64505,9.13,72698.3,-7.95,-21.13,-20.99,0,*5A
1511903019.83,64506,9.13,72702.5,-7.95,-21.13,-21.09,0,*51
1511903021.06,64507,9.13,72702.0,-7.97,-21.13,-21.03,0,*58
1511903022.32,64508,9.13,72700.3,-7.95,-21.23,-21.09,0,*5C
1511903023.57,64509,9.19,72704.0,-7.95,-21.23,-21.09,0,*5D
1511903024.8,64510,9.13,72700.3,-7.95,-21.13,-21.09,0,*56
1511903026.05,64511,9.13,72702.3,-7.95,-21.09,-20.99,0,*54
1511903027.31,64512,9.19,72704.0,-7.95,-21.23,-21.09,0,*57
1511903028.57,64513,9.13,72700.8,-7.97,-21.27,-21.03,0,*5A
1511903029.8,64514,9.19,72704.8,-7.95,-21.09,-21.09,0,*59
1511903031.05,64515,9.13,72700.5,-7.95,-21.09,-20.99,0,*50
1511903032.28,64516,9.13,72700.0,-7.95,-21.09,-20.93,0,*59
1511903033.51,64517,9.13,72702.5,-7.95,-21.09,-21.09,0,*5A
1511903034.74,64518,9.13,72700.8,-7.95,-21.13,-21.09,0,*5E
1511903035.96,64519,9.13,72702.5,-7.95,-21.13,-21.09,0,*5F
1511903037.19,64520,9.19,72704.5,-7.95,-21.13,-21.09,0,*55
1511903038.42,64521,9.13,72700.3,-7.95,-21.13,-21.09,0,*54
1511903039.65,64522,9.13,72700.5,-7.93,-21.23,-21.09,0,*52
1511903040.9,64523,9.19,72704.0,-7.95,-21.13,-20.99,0,*5E
1511903042.13,64524,9.19,72702.0,-7.95,-21.13,-21.09,0,*51
1511903043.36,64525,9.13,72700.3,-7.95,-21.09,-21.09,0,*5B
1511903044.59,64526,9.13,72702.5,-7.93,-21.09,-20.99,0,*56
1511903045.78,64527,9.13,72700.5,-7.93,-21.09,-21.09,0,*5F
1511903047.01,64528,9.13,72702.5,-7.93,-21.09,-20.99,0,*58
1511903048.21,64529,9.13,72702.8,-7.93,-21.13,-21.09,0,*5A
1511903049.42,64530,9.13,72700.8,-7.93,-20.93,-20.93,0,*59
1511903050.65,64531,9.19,72702.3,-7.93,-20.99,-21.09,0,*50
1511903051.88,64532,9.13,72698.5,-7.93,-20.99,-21.09,0,*53
1511903053.1,64533,9.13,72696.0,-7.93,-20.99,-21.09,0,*52
1511903054.33,64534,9.13,72702.8,-7.93,-20.99,-21.09,0,*55
1511903055.56,64535,9.19,72702.0,-7.93,-20.99,-21.09,0,*54
1511903056.76,64536,9.13,72702.0,-7.93,-20.93,-21.09,0,*5D
1511903058.02,64537,9.19,72702.3,-7.93,-20.99,-20.99,0,*5E
1511903059.21,64538,9.13,72702.3,-7.93,-21.09,-21.09,0,*51
1511903060.42,64539,9.13,72698.8,-7.93,-21.13,-21.09,0,*5B
1511903061.7,64540,9.19,72700.8,-7.91,-21.03,-20.99,0,*5E
1511903062.9,64541,9.13,72700.3,-7.93,-21.09,-21.09,0,*5F
1511903064.1,64542,9.13,72698.8,-7.93,-21.09,-21.09,0,*5C
1511903065.33,64543,9.13,72702.8,-7.95,-21.13,-21.13,0,*5B
1511903066.53,64544,9.13,72702.5,-7.93,-21.09,-21.09,0,*5A
1511903067.75,64545,9.13,72702.8,-7.93,-20.99,-21.09,0,*53
1511903068.95,64546,9.13,72700.3,-7.93,-21.09,-21.09,0,*58
1511903070.19,64547,9.13,72702.5,-7.91,-20.93,-20.93,0,*5B
1511903071.39,64548,9.13,72696.8,-7.93,-20.93,-21.09,0,*54
1511903072.59,64549,9.13,72698.3,-7.93,-21.09,-21.09,0,*57
1511903073.82,64550,9.13,72698.0,-7.93,-21.09,-20.99,0,*57
1511903075.04,64551,9.13,72700.8,-7.93,-20.99,-21.09,0,*56
1511903076.25,64552,9.13,72700.3,-7.93,-21.13,-21.09,0,*56
1511903077.45,64553,9.13,72700.3,-7.93,-21.13,-21.09,0,*57
1511903078.64,64554,9.13,72700.5,-7.93,-21.09,-21.09,0,*5B
1511903079.87,64555,9.13,72700.0,-7.95,-21.09,-21.09,0,*5C
1511903081.1,64556,9.13,72702.0,-7.97,-21.03,-21.13,0,*5C
1511903082.36,64557,9.13,72700.0,-7.95,-20.93,-20.99,0,*54
1511903083.56,64558,9.13,72702.5,-7.93,-21.13,-21.09,0,*5C
1511903084.76,64559,9.13,72700.3,-7.93,-21.09,-21.13,0,*5D
1511903086.0,64560,9.13,72700.8,-7.93,-21.13,-21.23,0,*5F
1511903087.2,64561,9.13,72700.5,-7.93,-21.09,-21.13,0,*56
1511903088.43,64562,9.13,72698.3,-7.93,-20.93,-20.99,0,*54
1511903089.66,64563,9.13,72700.3,-7.93,-20.99,-21.09,0,*57
1511903090.89,64564,9.13,72702.5,-7.93,-20.93,-20.99,0,*52
1511903092.12,64565,9.13,72698.8,-7.95,-20.93,-21.09,0,*5D
1511903093.38,64566,9.13,72700.8,-7.95,-20.93,-20.99,0,*56
1511903094.58,64567,9.13,72700.0,-7.93,-20.93,-21.09,0,*59
1511903095.8,64568,9.13,72702.8,-7.93,-20.99,-21.09,0,*5C
1511903097.03,64569,9.13,72700.0,-7.93,-20.99,-21.09,0,*5D
1511903098.26,64570,9.13,72700.8,-7.93,-20.99,-21.09,0,*55
1511903099.49,64571,9.19,72702.3,-7.93,-20.99,-21.13,0,*5F
1511903100.69,64572,9.13,72698.5,-7.93,-20.93,-21.09,0,*5D
1511903101.92,64573,9.13,72700.5,-7.93,-20.93,-20.99,0,*54
1511903103.19,64574,9.13,72702.0,-7.91,-20.89,-21.03,0,*58
1511903104.39,64575,9.13,72700.0,-7.93,-20.93,-21.09,0,*5A
1511903105.59,64576,9.13,72700.5,-7.93,-20.93,-21.09,0,*59
1511903106.85,64577,9.13,72700.3,-7.91,-20.89,-21.03,0,*5B
1511903108.11,64578,9.13,72702.8,-7.91,-20.93,-21.03,0,*5F
1511903109.34,64579,9.13,72700.5,-7.93,-20.93,-21.03,0,*5C
1511903110.54,64580,9.19,72704.3,-7.93,-21.09,-21.13,0,*59
1511903111.77,64581,9.13,72696.3,-7.93,-20.99,-21.13,0,*50
1511903113.0,64582,9.13,72698.5,-7.93,-20.99,-21.13,0,*53
1511903114.24,64583,9.13,72700.0,-7.93,-20.99,-21.13,0,*52
1511903115.5,64584,9.13,72700.0,-7.93,-20.99,-21.23,0,*56
1511903116.73,64585,9.13,72700.3,-7.93,-20.99,-21.13,0,*54
1511903117.93,64586,9.13,72702.3,-7.93,-20.93,-21.13,0,*5D
1511903119.17,64587,9.13,72700.8,-7.93,-20.93,-20.99,0,*5F
1511903120.37,64588,9.13,72702.0,-7.93,-20.93,-21.09,0,*58
1511903121.59,64589,9.13,72702.8,-7.93,-20.99,-21.09,0,*53
1511903122.82,64590,9.19,72704.0,-7.93,-20.99,-21.09,0,*5B
1511903124.05,64591,9.13,72698.8,-7.95,-20.93,-21.09,0,*56
1511903125.28,64592,9.13,72696.8,-7.95,-20.93,-21.09,0,*55
1511903126.5,64593,9.13,72698.5,-7.93,-20.99,-21.09,0,*58
1511903127.7,64594,9.13,72698.3,-7.93,-20.93,-21.09,0,*55
1511903128.93,64595,9.13,72700.0,-7.93,-20.93,-21.03,0,*5E
1511903130.16,64596,9.13,72702.3,-7.95,-20.93,-21.09,0,*51
1511903131.45,64597,9.13,72702.3,-7.95,-20.99,-21.23,0,*52
1511903132.66,64598,9.13,72696.8,-7.93,-20.93,-21.13,0,*52
1511903133.86,64599,9.13,72702.0,-7.93,-20.93,-21.09,0,*58
1511903135.06,64600,9.13,72696.5,-7.93,-20.93,-21.09,0,*5B
1511903136.29,64601,9.13,72700.3,-7.93,-20.99,-21.13,0,*5B
1511903137.49,64602,9.13,72698.0,-7.93,-20.93,-21.13,0,*52
1511903138.72,64603,9.13,72698.0,-7.93,-20.99,-21.13,0,*59
1511903139.96,64604,9.13,72702.5,-7.93,-21.13,-21.23,0,*5E
1511903141.16,64605,9.13,72700.3,-7.93,-20.93,-21.13,0,*55
1511903142.39,64606,9.13,72700.5,-7.93,-20.99,-21.13,0,*5C
1511903143.66,64607,9.13,72702.3,-7.93,-20.99,-21.23,0,*5E
1511903144.91,64608,9.13,72698.3,-7.95,-20.99,-21.13,0,*54
1511903146.15,64609,9.13,72700.8,-7.95,-20.93,-21.13,0,*5F
1511903147.41,64610,9.13,72700.0,-7.95,-20.93,-21.23,0,*54
1511903148.64,64611,9.13,72700.5,-7.95,-20.93,-21.13,0,*56
1511903149.88,64612,9.13,72700.0,-7.97,-20.99,-21.17,0,*59
1511903151.11,64613,9.13,72700.0,-7.93,-20.99,-21.13,0,*58
1511903152.31,64614,9.19,72702.3,-7.93,-20.93,-21.13,0,*55
1511903153.55,64615,9.13,72702.3,-7.91,-20.89,-21.17,0,*59
1511903154.84,64616,9.13,72700.8,-7.95,-20.99,-21.27,0,*5C
1511903156.11,64617,9.13,72698.8,-7.97,-21.03,-21.27,0,*5D
1511903157.34,64618,9.13,72696.8,-7.95,-20.93,-21.13,0,*5F
1511903158.54,64619,9.13,72696.8,-7.93,-20.93,-21.13,0,*58
1511903159.75,64620,9.13,72700.0,-7.93,-20.89,-21.09,0,*52
1511903160.95,64621,9.13,72696.5,-7.93,-20.89,-21.09,0,*53
1511903162.24,64622,9.13,72702.3,-7.91,-20.83,-21.03,0,*52
1511903163.46,64623,9.13,72698.8,-7.93,-20.99,-21.09,0,*50
1511903164.7,64624,9.13,72702.5,-7.93,-20.99,-21.13,0,*5C
1511903165.96,64625,9.13,72698.5,-7.95,-20.93,-21.23,0,*52
1511903167.22,64626,9.13,72702.0,-7.93,-20.99,-21.23,0,*5D
1511903168.43,64627,9.13,72696.8,-7.93,-20.93,-21.13,0,*55
1511903169.69,64628,9.13,72698.0,-7.93,-20.99,-21.23,0,*53
1511903170.92,64629,9.13,72696.3,-7.93,-21.09,-21.27,0,*5E
1511903172.15,64630,9.13,72698.3,-7.93,-21.09,-21.27,0,*56
1511903173.45,64631,9.13,72700.0,-7.95,-20.99,-21.23,0,*5D
1511903174.68,64632,9.13,72696.5,-7.95,-20.93,-21.13,0,*57
1511903175.93,64633,9.13,72702.0,-7.95,-20.99,-21.13,0,*5C
1511903177.22,64634,9.13,72698.8,-7.95,-20.99,-21.23,0,*58
1511903178.48,64635,9.13,72702.0,-7.95,-20.99,-21.13,0,*5A
1511903179.77,64636,9.13,72696.0,-7.95,-20.99,-21.23,0,*5A
1511903181.03,64637,9.13,72700.0,-7.95,-21.13,-21.27,0,*5C
1511903182.29,64638,9.13,72698.0,-7.95,-21.13,-21.27,0,*53
1511903183.53,64639,9.13,72696.8,-7.97,-21.13,-21.33,0,*55
1511903184.79,64640,9.13,72702.0,-7.95,-21.09,-21.27,0,*57
1511903186.05,64641,9.13,72698.3,-7.95,-21.09,-21.23,0,*52
1511903187.34,64642,9.13,72694.5,-7.95,-20.99,-21.27,0,*5D
1511903188.6,64643,9.13,72696.3,-7.95,-20.93,-21.23,0,*52
1511903189.83,64644,9.13,72696.3,-7.95,-20.89,-21.13,0,*5D
1511903191.07,64645,9.13,72698.5,-7.95,-20.89,-21.13,0,*5C
1511903192.34,64646,9.13,72698.3,-7.95,-20.89,-21.23,0,*5C
1511903193.57,64647,9.13,72700.8,-7.95,-20.93,-21.13,0,*55
1511903194.8,64648,9.13,72698.8,-7.97,-20.99,-21.17,0,*56
1511903196.04,64649,9.13,72700.8,-7.93,-20.99,-21.13,0,*57
1511903197.3,64650,9.13,72698.3,-7.97,-20.99,-21.33,0,*59
1511903198.58,64651,9.13,72698.3,-7.95,-20.99,-21.27,0,*5F
1511903199.81,64652,9.13,72696.3,-7.95,-21.09,-21.39,0,*5B
1511903201.01,64653,9.13,72700.0,-7.93,-21.09,-21.39,0,*5C
1511903202.28,64654,9.13,72700.8,-7.97,-20.99,-21.27,0,*58
1511903203.54,64655,9.13,72698.5,-7.97,-21.03,-21.33,0,*5E
1511903204.8,64656,9.13,72698.3,-7.97,-20.99,-21.33,0,*5F
1511903206.03,64657,9.13,72698.5,-7.95,-21.09,-21.39,0,*5E
1511903207.23,64658,9.13,72696.5,-7.97,-21.13,-21.43,0,*55
1511903208.44,64659,9.13,72698.0,-7.97,-21.13,-21.43,0,*54
1511903209.65,64660,9.13,72700.8,-7.97,-21.13,-21.43,0,*5E
1511903210.87,64661,9.13,72698.5,-7.95,-21.09,-21.39,0,*5B
1511903212.11,64662,9.13,72696.8,-7.97,-21.17,-21.33,0,*5F
1511903213.34,64663,9.13,72698.5,-7.97,-21.03,-21.43,0,*5C
1511903214.57,64664,9.13,72696.0,-7.97,-21.03,-21.43,0,*5B
1511903215.81,64665,9.13,72698.0,-7.97,-20.99,-21.39,0,*55
1511903217.01,64666,9.19,72700.0,-7.97,-21.13,-21.43,0,*58
1511903218.22,64667,9.13,72700.0,-7.97,-21.13,-21.47,0,*5D
1511903219.48,64668,9.13,72698.8,-7.97,-21.03,-21.33,0,*50
1511903220.71,64669,9.13,72702.0,-7.95,-20.93,-21.13,0,*59
1511903221.98,64670,9.13,72698.3,-7.95,-20.93,-21.23,0,*52
1511903223.22,64671,9.13,72698.8,-7.97,-20.99,-21.17,0,*5C
1511903224.48,64672,9.13,72696.8,-7.95,-20.93,-21.23,0,*50
1511903225.71,64673,9.13,72696.5,-7.95,-21.09,-21.39,0,*58
1511903226.97,64674,9.13,72698.3,-7.97,-20.99,-21.27,0,*5A
1511903228.24,64675,9.13,72696.3,-7.97,-20.99,-21.27,0,*5B
1511903229.5,64676,9.13,72702.0,-7.97,-21.03,-21.33,0,*5F
1511903230.75,64677,9.13,72698.3,-7.97,-21.03,-21.33,0,*5E
1511903232.01,64678,9.13,72698.5,-7.97,-21.03,-21.33,0,*51
1511903233.22,64679,9.13,72694.8,-7.97,-21.13,-21.43,0,*56
1511903234.51,64680,9.13,72700.8,-7.95,-20.99,-21.23,0,*57
1511903235.77,64681,9.13,72698.0,-7.97,-21.03,-21.33,0,*57
1511903237.0,64682,9.13,72696.3,-7.97,-21.13,-21.33,0,*55
1511903238.26,64683,9.13,72696.5,-7.97,-21.03,-21.33,0,*55
1511903239.5,64684,9.13,72698.0,-7.97,-20.93,-21.23,0,*5B
1511903240.76,64685,9.13,72696.8,-7.97,-21.03,-21.33,0,*53
1511903241.97,64686,9.13,72700.8,-7.97,-21.13,-21.43,0,*56
1511903243.2,64687,9.13,72698.0,-7.97,-21.03,-21.17,0,*57
1511903244.47,64688,9.13,72696.3,-7.97,-21.03,-21.27,0,*5B
1511903245.68,64689,9.13,72698.0,-7.97,-21.13,-21.43,0,*59
1511903246.88,64690,9.13,72696.0,-7.97,-21.17,-21.43,0,*55
1511903248.11,64691,9.13,72698.5,-7.97,-20.99,-21.43,0,*53
1511903249.35,64692,9.13,72698.0,-7.99,-21.09,-21.39,0,*5B
1511903250.61,64693,9.13,72698.8,-7.97,-21.03,-21.33,0,*54
1511903251.82,64694,9.13,72698.8,-7.97,-21.17,-21.43,0,*51
1511903253.02,64695,9.13,72700.0,-7.97,-21.13,-21.43,0,*54
1511903254.26,64696,9.13,72698.3,-7.99,-21.09,-21.39,0,*5F
1511903255.49,64697,9.13,72698.5,-7.97,-21.17,-21.33,0,*55
1511903256.72,64698,9.13,72698.3,-7.95,-21.09,-21.39,0,*5D
1511903257.95,64699,9.13,72698.8,-7.97,-21.13,-21.33,0,*5F
1511903259.21,64700,9.13,72696.3,-7.97,-20.99,-21.33,0,*5D
1511903260.44,64701,9.13,72698.3,-7.97,-21.09,-21.33,0,*54
1511903261.71,64702,9.13,72700.8,-7.97,-20.99,-21.27,0,*5A
1511903262.94,64703,9.13,72696.8,-7.99,-21.09,-21.39,0,*52
1511903264.18,64704,9.13,72696.0,-7.99,-21.09,-21.47,0,*5C
1511903265.41,64705,9.13,72696.0,-7.97,-21.03,-21.43,0,*5D
1511903266.64,64706,9.13,72698.5,-7.97,-21.03,-21.43,0,*5E
1511903267.85,64707,9.13,72698.5,-7.97,-21.17,-21.43,0,*5A
1511903269.08,64708,9.13,72694.3,-7.97,-21.03,-21.43,0,*50
1511903270.34,64709,9.13,72698.5,-7.97,-20.99,-21.33,0,*54
1511903271.57,64710,9.13,72696.8,-7.97,-21.03,-21.43,0,*59
1511903272.8,64711,9.13,72698.5,-7.97,-21.13,-21.33,0,*5E
1511903274.04,64712,9.13,72694.0,-7.99,-21.09,-21.47,0,*5B
1511903275.31,64713,9.13,72696.8,-7.99,-21.03,-21.39,0,*59
1511903276.57,64714,9.13,72696.3,-7.99,-21.03,-21.39,0,*5E
1511903277.78,64715,9.13,72698.3,-7.97,-21.17,-21.47,0,*5D
1511903279.01,64716,9.13,72696.3,-7.97,-21.13,-21.33,0,*59
1511903280.27,64717,9.13,72696.8,-7.97,-20.99,-21.33,0,*5B
1511903281.57,64718,9.13,72698.5,-7.99,-21.03,-21.23,0,*59
1511903282.81,64719,9.13,72696.0,-7.99,-21.09,-21.47,0,*50
1511903284.04,64720,9.13,72698.0,-7.97,-21.13,-21.57,0,*5E
1511903285.3,64721,9.13,72696.3,-7.99,-21.03,-21.39,0,*58
1511903286.57,64722,9.13,72698.0,-7.99,-21.03,-21.39,0,*5B
1511903287.77,64723,9.13,72696.3,-8.01,-21.09,-21.39,0,*5E
1511903289.01,64724,9.13,72698.0,-7.99,-21.09,-21.47,0,*5E
1511903290.25,64725,9.13,72698.0,-7.99,-21.17,-21.47,0,*50
1511903291.51,64726,9.13,72696.5,-7.99,-21.23,-21.63,0,*52
1511903292.72,64727,9.13,72696.5,-7.97,-21.13,-21.47,0,*58
1511903293.93,64728,9.13,72696.3,-7.97,-21.13,-21.43,0,*53
1511903295.16,64729,9.13,72698.5,-8.01,-21.17,-21.53,0,*57
1511903296.46,64730,9.13,72698.8,-7.99,-21.23,-21.53,0,*56
1511903297.72,64731,9.13,72696.8,-7.99,-21.23,-21.63,0,*54
1511903298.98,64732,9.13,72696.5,-7.99,-21.17,-21.53,0,*53
1511903300.27,64733,9.13,72696.8,-7.99,-21.23,-21.53,0,*55
1511903301.51,64734,9.13,72696.3,-7.99,-21.17,-21.47,0,*50
1511903302.78,64735,9.13,72696.3,-7.97,-20.99,-21.27,0,*5E